Preview of NWS' New Version of Forecast
This preview is not operational and should not be used for support decisions.

Regional Weather Roundup (RWR)

Issued by National Weather Service (NWS)

                            
000
ASUS45 KBOI 250510
RWRID 

IDAHO REGIONAL WEATHER ROUNDUP
NATIONAL WEATHER SERVICE BOISE ID
1100 PM MDT MON JUN 24 2019

NOTE: "FAIR" INDICATES FEW OR NO CLOUDS BELOW 12000 FEET
WITH NO SIGNIFICANT WEATHER AND/OR OBSTRUCTIONS TO VISIBILITY

IDZ012-014-250600-
SOUTHWEST IDAHO

  
CITY           SKY/WX    TMP DP  RH WIND       PRES   REMARKS
BOISE          PTCLDY    66  39  37 SE5       29.82S                  
CALDWELL       PTCLDY    67  43  41 CALM      29.81S                  
$$

IDZ016-017-250600-
SOUTHCENTRAL IDAHO

  
CITY           SKY/WX    TMP DP  RH WIND       PRES   REMARKS
BURLEY         MOCLDY    61  48  62 SE3       29.88R                  
JEROME         LGT RAIN  60  43  53 CALM      29.89R                  
TWIN FALLS     MOCLDY    58  45  62 S5        29.89R                  
$$

IDZ019>023-250600-
SOUTHEAST IDAHO

  
CITY           SKY/WX    TMP DP  RH WIND       PRES   REMARKS
IDAHO FALLS    PTCLDY    62  35  36 SW13      29.92R                  
POCATELLO      PTCLDY    58  35  42 S7        29.92R                  
REXBURG        PTCLDY    60  34  37 S8        29.90R                  
$$

IDZ006-010-011-018-031-032-250600-
CENTRAL IDAHO MOUNTAINS

  
CITY           SKY/WX    TMP DP  RH WIND       PRES   REMARKS
MCCALL         CLEAR     51  35  54 NE3       29.93R                  
HAILEY         PTCLDY    55  37  50 NW6       29.96R                  
STANLEY          N/A     45  30  55 SW3       30.02R                  
SALMON         MOCLDY    59  37  44 S3        29.90R                  
CHALLIS        CLEAR     60  27  28 SW8       29.93S                  
$$

IDZ002-004-006-007-026-250600-
NORTHERN IDAHO

  
CITY           SKY/WX    TMP DP  RH WIND       PRES   REMARKS
LEWISTON       MOCLDY    65  39  38 SE6       29.85R                  
LOWELL           N/A     56  50  80 CALM      29.88R                  
COEUR D'ALENE  PTCLDY    56  44  64 NE7       29.89R                  
MULLAN PASS    CLEAR     44  30  57 CALM      29.98S                  
$$